User: anonymous   Login
Location: Muenchen
(48.1800°N, 11.5800°E)
Time: 09:36:32
(UTC+01:00)
Language:

Iridium 37 - Orbit

View from above orbital plane
View from above orbital plane
View from above satellite
View from above satellite

Ground track
Ground track

The orbit data is extracted from the following two-line orbital elements,

1 24968U 97056D   16341.54858919  .00000177  00000-0  56096-4 0  9995
2 24968  86.3979  39.4169 0002213  94.1790 265.9658 14.34220810  4924
Epoch (UTC): 06 December 2016 13:09:58
Eccentricity: 0.0002213
inclination: 86.3979°
perigee height: 776 km
apogee height: 779 km
right ascension of ascending node: 39.4169°
argument of perigee: 94.1790°
revolutions per day: 14.34220810
mean anomaly at epoch: 265.9658°
orbit number at epoch: 492

The dashed part of the orbit path shows where the satellite is in the earth's shadow,  

DLR